Theta_e
340 341 342 343 343 343 344 344 344 344 345 345 345 346 347 346 347 347 347 346 345 346 346 346 345 344 344 343 343 343 343 342 341 340 338 335 337 339 340 340 340 341 341 340 340 340 340 340 340 339 338 336 336 335 336 336 337 336 335 334 334 333 334 334 334 334 334 335 335 335 336 335 335 334 334 335 335 336 335 335 335 334 335 336 336
341 343 344 345 344 344 344 345 345 345 346 346 345 346 346 346 347 347 347 347 346 346 346 347 345 344 343 343 342 342 342 342 342 341 341 338 337 339 340 340 340 341 341 341 340 340 341 340 340 340 340 338 337 337 336 336 336 336 336 335 335 335 334 334 334 333 334 334 334 334 334 334 334 334 333 332 332 333 334 335 335 336 337 338 338
343 344 344 345 344 344 345 345 345 345 346 347 346 346 347 346 347 347 347 347 346 346 346 346 345 344 343 341 341 342 341 342 342 342 342 340 338 339 341 340 341 341 340 340 340 340 341 341 341 341 341 339 338 338 337 336 336 335 335 335 335 335 334 334 334 333 333 334 333 332 332 332 331 331 331 331 332 334 336 337 337 337 338 338 338
343 344 345 345 345 344 345 345 346 346 347 347 347 347 347 347 347 347 347 347 347 346 346 346 345 344 342 340 340 341 341 342 343 342 342 341 339 340 341 340 340 340 340 340 340 340 340 341 341 341 340 339 340 339 339 338 338 337 336 336 336 336 335 335 334 333 332 332 332 332 332 332 332 334 335 336 337 337 338 337 337 338 338 338 337
344 344 345 345 345 344 345 346 346 347 348 348 346 347 347 347 348 347 346 347 346 345 345 345 344 342 341 340 340 340 341 341 343 342 341 341 340 340 340 341 340 340 340 340 340 339 340 340 340 341 340 340 341 341 340 340 340 339 339 338 338 338 338 338 337 336 335 334 334 335 335 335 336 337 338 338 338 338 338 338 339 339 338 338 338
345 345 345 345 345 344 345 346 346 347 348 348 346 346 347 347 347 346 346 346 344 344 344 344 342 342 341 341 340 340 341 341 342 343 341 340 341 340 340 339 340 340 340 340 340 339 340 340 340 341 341 340 341 341 341 341 341 341 340 340 340 340 340 340 340 339 338 338 338 338 338 338 338 338 338 338 339 339 339 339 339 339 339 338 338
345 345 345 345 345 345 346 347 347 347 348 347 346 347 347 347 347 346 346 345 343 343 342 342 342 341 341 341 340 340 340 341 342 343 341 341 341 340 340 340 339 339 340 340 340 339 339 340 341 340 341 340 340 341 341 341 341 341 341 341 341 340 340 340 340 340 339 340 340 340 339 339 339 339 339 339 339 339 339 338 339 339 337 335 334
345 346 346 345 345 345 347 348 348 348 347 347 347 347 347 346 346 345 345 344 343 343 342 342 342 342 340 339 340 340 340 342 342 343 342 341 341 340 341 341 338 337 338 339 339 338 337 339 341 341 341 341 340 341 341 341 341 341 341 341 341 341 341 340 340 340 339 340 340 340 340 340 339 339 339 339 339 339 338 337 336 334 330 327 327
347 347 346 347 346 345 347 347 347 348 347 346 346 347 346 346 346 344 343 343 343 342 342 341 341 341 340 339 340 339 339 342 342 343 343 341 342 342 342 343 340 337 337 337 337 337 336 337 339 340 340 340 341 341 340 340 340 341 341 341 341 341 341 341 341 340 340 340 340 339 340 340 339 338 338 338 338 336 334 332 329 325 322 321 321
348 348 347 347 348 347 346 346 346 348 347 346 345 346 346 346 345 343 342 343 342 342 341 341 340 341 340 340 340 339 340 342 342 344 344 342 342 343 342 341 340 339 338 337 337 337 337 337 338 339 340 340 340 341 340 340 340 340 341 340 340 341 341 341 341 341 341 340 340 340 339 339 338 337 337 335 333 330 327 324 321 318 317 316 316
346 348 348 348 348 347 347 346 346 346 346 346 345 344 345 346 345 344 343 342 342 342 341 340 340 340 339 338 338 339 340 341 342 344 344 342 342 343 342 340 339 340 340 339 339 339 339 339 339 340 340 339 338 340 341 340 340 340 339 339 339 339 340 340 340 341 341 340 339 339 339 338 337 335 333 329 326 324 321 319 317 315 314 314 314
343 344 347 347 347 348 348 347 347 346 346 347 347 346 346 348 347 344 342 342 343 343 342 340 339 339 337 335 337 339 339 340 343 344 343 342 341 342 342 341 341 340 340 340 339 339 340 340 340 340 341 339 337 337 338 337 337 337 337 337 337 338 339 339 339 340 340 340 339 338 337 336 333 330 327 324 321 319 317 315 314 314 313 314 315
341 341 343 345 346 346 346 346 347 347 347 347 347 346 347 349 348 345 343 343 343 342 341 339 338 338 336 335 337 338 338 339 343 344 343 342 341 342 342 342 341 340 339 339 338 339 339 340 339 339 339 339 337 335 335 336 336 335 335 335 335 336 337 338 339 339 338 338 338 336 333 329 326 323 321 319 317 315 314 314 314 314 315 316 317
343 342 342 342 343 343 343 343 345 347 348 347 346 345 347 348 347 346 343 343 343 341 340 338 338 337 336 336 338 339 338 338 342 344 343 343 342 343 342 341 340 339 338 339 339 339 339 340 337 334 335 334 333 332 333 334 335 335 335 334 332 332 332 334 335 335 335 335 334 330 326 323 321 318 317 316 315 315 315 315 316 316 318 318 319
344 343 343 343 343 343 341 341 341 344 347 348 346 345 347 348 347 346 344 343 342 340 339 338 338 337 336 340 341 341 340 338 340 343 343 342 342 343 343 342 341 339 337 338 340 340 340 339 333 330 330 331 331 331 330 329 330 332 334 334 332 331 331 331 331 331 330 330 328 325 321 319 317 316 315 315 315 316 317 318 318 319 319 320 320
343 343 343 343 344 343 340 339 340 342 345 347 347 346 346 348 348 346 346 344 342 341 340 337 337 338 339 341 340 341 344 341 339 342 343 342 343 342 341 342 341 339 338 338 338 339 340 336 332 330 330 329 330 330 329 327 325 325 329 333 334 332 329 328 328 328 326 324 323 321 319 317 316 316 316 317 318 319 319 320 320 320 320 321 321
342 342 342 343 343 343 340 339 340 341 343 345 347 347 346 347 347 345 345 345 343 342 340 337 337 339 339 340 341 343 345 343 340 342 342 342 343 341 339 341 341 340 340 339 336 336 336 334 333 332 331 331 331 329 327 326 324 322 324 328 330 327 325 325 325 324 322 321 319 318 317 317 317 318 319 319 320 320 320 320 320 320 320 320 320
342 341 341 342 342 341 340 339 340 340 343 344 344 346 346 346 346 345 345 345 342 340 339 337 336 338 339 340 341 342 343 344 344 343 342 341 342 342 341 339 339 340 341 340 337 334 333 333 334 334 334 335 333 330 328 327 325 323 322 322 323 322 321 322 322 320 319 318 317 317 318 319 319 320 320 321 320 320 320 320 319 320 320 320 320
341 340 341 341 341 341 339 338 339 340 341 342 342 344 346 346 346 345 346 346 343 338 337 337 335 336 338 339 339 340 342 344 346 345 344 343 341 341 341 340 337 339 341 340 337 335 334 335 336 335 336 335 334 333 330 328 326 324 322 321 321 320 320 321 320 319 318 317 317 319 320 320 321 321 321 321 320 320 320 319 319 319 320 320 320
340 339 341 340 340 340 339 338 338 339 339 340 341 343 345 345 345 345 345 345 344 340 338 338 336 335 337 338 340 341 341 344 345 343 343 345 343 341 341 340 339 339 340 339 338 336 336 337 337 337 337 336 336 334 330 329 328 326 324 322 321 321 320 320 320 319 318 318 319 320 320 321 321 321 321 321 321 320 320 320 320 320 320 320 320
340 339 340 340 339 339 340 340 339 337 337 339 340 342 344 345 345 345 346 346 345 342 339 338 337 337 339 339 340 341 341 342 344 341 340 342 344 343 343 341 340 339 339 339 339 338 338 338 338 337 338 337 337 336 333 330 329 327 326 325 324 322 321 321 321 320 319 319 320 320 321 321 321 322 322 322 321 321 320 320 320 320 320 320 320
342 340 340 341 339 339 340 341 340 338 336 337 339 340 342 345 345 346 347 347 346 344 341 339 337 338 339 339 339 339 341 343 345 343 341 342 342 343 344 343 343 341 339 338 339 339 339 339 338 338 337 338 337 337 335 333 331 328 327 327 326 325 324 323 322 321 321 320 320 320 321 320 321 322 322 322 322 321 321 321 321 321 321 321 321
342 340 340 341 341 339 339 341 340 340 338 337 339 340 341 344 345 346 346 347 347 346 343 340 338 337 338 338 338 338 339 342 345 344 343 344 345 344 344 343 342 341 338 338 339 339 338 338 339 339 338 338 338 337 337 336 334 332 329 328 328 328 328 327 325 324 323 322 322 321 321 321 322 322 322 322 322 322 322 322 321 322 322 322 322
342 340 339 341 341 341 340 340 340 340 339 339 339 339 340 343 345 346 346 346 347 347 345 342 340 339 339 339 339 338 337 339 341 342 341 343 345 344 344 341 339 339 338 337 337 337 337 337 337 338 338 338 338 337 336 336 335 334 333 331 331 331 330 329 328 327 326 325 325 324 323 323 323 323 323 323 323 323 323 322 322 322 322 322 323
341 340 338 339 341 341 341 340 339 338 338 339 339 339 339 342 345 346 345 345 346 346 346 344 342 341 341 341 340 338 337 337 339 339 339 340 342 343 342 340 338 338 336 334 335 335 334 334 335 336 336 336 337 336 336 335 334 334 334 333 333 333 332 331 331 330 329 328 327 326 325 325 325 325 325 324 324 324 324 324 324 323 323 323 323
341 340 338 338 339 340 341 340 339 338 338 339 339 339 339 340 343 345 345 345 346 346 346 345 344 342 341 340 339 339 339 338 337 338 339 340 342 343 342 338 338 337 333 332 333 332 331 332 333 333 333 335 336 336 335 335 335 334 335 334 334 333 333 333 333 333 333 332 331 329 328 328 327 326 327 326 325 326 325 326 325 325 325 324 324
341 340 338 338 338 338 339 340 340 339 338 338 338 339 338 339 341 343 344 344 345 345 345 345 345 343 342 340 340 339 339 338 336 335 337 339 341 342 341 339 340 340 337 333 331 330 330 330 330 331 332 332 334 335 335 335 335 334 335 334 333 333 333 334 334 334 335 335 334 334 333 331 330 329 329 328 327 327 327 326 327 326 326 326 325
340 340 339 338 338 338 339 339 339 339 338 338 338 338 338 339 339 341 343 344 344 345 344 344 344 344 343 342 341 340 339 340 338 335 334 335 336 337 337 338 339 341 340 337 331 330 330 329 330 330 330 331 331 332 332 333 333 334 334 334 333 333 334 334 334 335 335 336 336 336 335 335 334 333 332 331 329 329 328 328 327 327 327 326 325
340 339 339 338 338 338 338 338 338 338 337 337 337 338 338 339 338 339 342 343 343 343 344 344 344 345 344 344 343 342 342 342 340 337 334 333 333 334 335 335 336 338 339 338 333 330 331 330 330 330 330 330 331 331 331 331 332 332 332 332 332 333 334 334 335 335 335 336 336 336 336 336 336 336 335 334 332 331 329 328 328 327 327 326 326
340 339 339 339 338 338 338 338 338 338 337 337 336 337 338 338 338 338 339 341 341 342 342 343 343 344 345 344 344 343 343 342 342 340 339 336 336 336 336 336 334 333 334 335 333 331 332 332 332 333 333 333 332 332 331 331 331 331 331 331 331 331 332 333 333 334 334 335 336 335 336 336 336 336 336 336 335 334 332 330 328 327 327 327 327
339 339 339 339 338 337 338 338 337 336 336 336 336 336 337 337 338 337 338 338 339 339 340 340 340 342 342 344 343 343 343 342 342 342 341 340 341 340 339 339 338 336 334 333 332 333 333 334 335 335 334 335 335 334 333 332 332 332 332 332 331 331 332 331 330 331 332 333 334 334 335 335 335 336 335 336 336 336 335 333 330 327 326 327 327
338 338 338 338 338 337 337 337 337 336 335 335 335 336 336 337 337 337 337 337 337 337 338 339 339 339 340 341 341 341 341 342 342 342 342 341 341 341 342 341 341 341 339 337 337 336 335 336 336 335 335 336 335 335 335 335 335 335 335 335 334 334 333 332 331 330 330 330 330 331 332 334 334 335 335 336 335 336 336 335 333 330 326 326 326
338 338 337 337 337 337 336 337 337 336 335 334 334 335 336 337 337 337 337 336 337 337 336 337 337 337 338 339 339 339 340 340 340 341 340 341 341 341 341 341 341 341 341 341 340 339 337 336 335 336 336 336 335 335 335 336 336 336 336 336 336 336 336 336 335 334 332 330 330 328 328 329 331 333 335 335 335 335 335 335 334 332 328 326 326
337 337 337 337 336 336 336 337 337 336 334 334 334 335 336 337 337 337 337 336 335 336 336 336 336 336 337 337 338 338 337 338 338 339 339 339 339 340 340 340 340 340 340 340 341 339 337 336 336 336 335 335 335 335 334 334 334 334 335 335 335 335 336 336 336 336 335 334 332 330 328 326 327 328 331 333 334 334 334 334 333 333 331 328 326
338 336 336 336 336 336 335 335 336 336 334 333 333 333 334 336 337 337 337 336 335 336 336 335 336 336 336 336 336 336 337 337 336 336 337 337 337 338 338 338 338 338 339 339 340 340 338 338 337 336 335 335 334 333 334 333 333 334 334 333 334 334 334 334 335 335 334 335 335 334 333 330 328 326 326 328 330 333 334 334 334 334 334 331 327
338 336 335 335 334 335 335 334 335 334 334 333 332 332 332 333 335 336 336 336 336 336 336 336 336 336 337 336 336 336 337 336 336 335 335 335 336 336 337 337 337 337 338 338 338 339 339 337 336 335 335 335 334 334 333 333 334 333 334 333 333 333 333 334 334 334 333 334 335 336 336 336 335 333 330 328 327 328 330 333 334 333 333 333 330
338 336 335 334 334 333 333 333 332 332 332 332 332 331 331 331 332 334 336 337 336 336 335 335 336 336 335 336 335 336 336 335 334 334 335 335 335 336 336 335 335 336 336 336 336 337 337 337 335 335 335 335 334 334 333 334 334 334 333 332 332 333 333 334 336 336 337 337 338 338 338 337 337 337 336 335 332 329 328 328 331 333 333 333 332
340 338 335 333 332 331 331 330 330 330 330 331 331 332 332 332 332 333 334 336 336 335 334 334 334 334 334 334 334 334 334 333 333 333 333 334 334 334 334 334 334 335 336 335 336 337 337 336 336 335 335 335 335 334 334 334 335 335 334 335 336 337 337 339 341 343 344 342 341 340 340 340 339 338 338 338 337 336 332 329 328 329 332 333 333
342 339 335 333 331 330 329 329 329 329 328 329 330 331 332 332 332 332 332 334 334 334 333 333 333 333 333 332 333 333 332 332 332 332 333 333 333 334 334 334 335 336 337 338 338 338 339 338 337 336 335 334 334 334 335 335 337 338 340 342 344 346 345 345 347 348 349 347 345 343 343 343 343 343 342 342 341 342 340 337 333 330 329 330 331
343 339 336 334 332 330 330 328 328 328 327 328 328 329 330 330 331 331 331 331 332 332 332 333 333 333 332 332 332 332 332 332 332 332 332 333 333 334 335 335 336 338 339 340 341 342 342 341 339 337 337 336 335 334 336 339 341 344 347 351 352 353 352 351 350 350 349 349 347 345 345 346 347 347 348 348 347 347 346 344 340 337 333 330 329
343 341 338 336 334 332 331 329 329 328 327 327 327 328 329 329 330 330 330 331 331 332 332 332 332 333 332 332 331 331 332 331 332 332 332 333 334 335 336 337 339 341 341 342 343 344 344 345 345 343 342 341 341 340 340 344 348 352 355 356 357 357 356 353 350 349 350 350 350 348 348 350 353 353 352 352 352 352 351 349 347 345 340 336 332
345 343 340 338 335 333 332 332 331 330 328 327 326 327 328 327 328 328 329 329 329 329 330 330 331 331 331 331 331 331 331 331 331 331 331 332 333 334 336 339 341 343 344 345 345 344 345 347 349 349 350 350 349 350 350 352 356 358 358 358 358 358 357 354 351 350 351 352 353 353 353 353 355 355 354 354 353 353 353 352 352 350 346 343 340
347 345 342 339 336 335 334 333 333 331 329 327 325 326 326 326 327 327 327 328 328 327 327 328 329 329 329 329 329 330 330 330 330 330 331 332 333 334 336 339 341 344 346 346 346 346 347 350 352 354 354 354 355 355 356 358 359 359 358 358 358 358 356 355 353 351 352 353 353 353 353 352 354 354 353 354 354 354 354 354 354 350 347 347 345
348 347 344 340 337 335 334 333 333 332 329 327 326 326 326 326 327 327 327 327 327 327 327 327 327 328 328 328 328 329 329 329 329 330 330 332 332 335 338 340 342 345 346 347 349 349 350 351 354 355 356 356 357 358 359 360 360 360 359 357 355 355 354 354 354 353 352 353 353 353 352 353 354 355 354 353 354 353 353 353 353 350 347 349 349
349 349 347 344 340 337 335 333 332 332 330 328 326 327 327 326 327 327 328 328 327 327 327 327 328 327 328 327 328 328 328 328 330 331 332 332 334 336 339 342 344 345 347 349 350 351 351 353 355 355 356 357 358 359 360 360 360 360 360 357 354 353 353 353 353 353 354 354 354 354 355 355 355 355 353 350 350 351 347 345 349 351 350 350 351
349 350 349 349 346 341 337 334 333 332 331 329 328 328 327 327 327 328 329 328 328 328 327 328 327 327 327 327 327 328 329 329 331 331 332 334 336 339 341 343 345 346 348 349 351 352 353 354 355 356 357 358 359 360 361 360 360 360 359 357 355 354 355 356 356 355 355 355 355 355 356 354 351 351 348 344 343 343 337 334 340 345 347 347 349
350 350 351 351 350 346 342 339 336 334 332 330 329 328 328 328 329 330 330 329 329 329 329 329 328 328 328 328 329 329 330 331 331 332 334 336 338 342 343 345 347 348 349 350 351 353 354 355 356 357 358 359 359 360 361 360 360 360 359 359 357 356 358 359 357 354 353 352 353 354 354 348 340 340 338 333 334 334 329 328 332 337 343 346 347
350 351 352 352 353 351 348 346 344 338 333 331 330 330 329 330 331 331 331 331 332 332 331 331 330 330 330 330 331 332 331 332 332 334 336 339 341 344 345 348 348 350 352 352 352 353 355 356 357 358 358 360 360 360 360 360 359 359 359 359 358 358 360 359 357 353 348 346 343 343 344 339 333 335 333 328 333 336 332 331 333 336 341 346 347
351 351 352 352 353 353 352 352 350 344 337 334 332 332 331 332 333 334 334 333 334 334 334 333 333 332 332 332 333 334 333 334 334 336 338 342 344 346 347 349 350 352 353 354 354 355 355 356 357 358 359 358 359 359 358 358 360 360 359 359 359 360 360 357 354 347 340 337 333 334 340 339 334 337 337 334 338 340 336 335 338 340 340 343 345
352 352 352 353 354 354 355 355 354 351 346 342 339 337 337 337 338 340 338 338 338 338 338 338 336 335 336 335 335 336 335 335 336 338 342 344 346 348 349 351 352 353 355 356 356 356 357 357 358 357 358 357 357 358 359 360 362 361 360 359 356 352 349 345 340 334 331 331 330 333 340 341 338 339 341 341 342 342 341 340 341 341 341 341 343
353 353 354 354 355 356 356 357 356 356 354 352 349 346 345 346 347 348 347 346 346 344 343 342 341 339 339 337 337 338 337 337 338 341 345 347 349 350 351 352 353 354 355 356 357 358 359 360 359 359 358 358 359 361 361 361 360 358 355 351 343 338 336 334 333 335 336 334 330 332 339 342 341 341 341 342 343 343 342 343 343 342 342 342 342
Wind_Speed
7 7 6 6 5 5 5 4 3 3 3 1 1 2 3 2 3 3 2 2 2 3 3 3 4 4 5 6 6 6 6 7 7 6 6 5 4 4 3 3 4 4 3 2 2 3 3 3 3 3 4 4 4 4 3 3 3 3 4 3 3 3 3 3 3 3 3 4 4 4 4 5 6 6 6 7 7 7 8 8 9 9 9 9 10
7 7 6 6 5 5 4 4 3 2 2 1 1 2 2 2 3 3 2 2 2 2 2 2 2 4 5 6 6 6 6 6 7 7 6 5 5 4 3 2 3 3 3 2 3 3 2 2 2 3 3 3 4 4 4 3 3 3 3 3 3 3 3 3 3 3 3 3 4 4 5 5 6 7 7 7 8 8 7 8 8 9 10 10 10
8 7 6 5 5 5 4 3 2 2 2 2 2 2 2 2 3 2 2 1 1 1 1 1 2 4 5 5 5 5 5 5 6 6 6 5 4 4 3 2 1 2 2 3 3 2 1 1 2 2 2 3 3 3 4 4 3 3 3 3 3 3 4 4 4 4 3 3 4 4 5 5 6 6 7 7 7 7 7 8 8 9 10 11 11
8 7 6 6 5 5 4 3 3 3 2 2 2 2 2 2 1 2 2 2 1 1 2 1 2 4 5 6 5 5 4 5 5 5 5 4 4 4 4 3 1 1 1 2 3 2 1 1 1 2 1 2 2 2 3 3 3 3 3 3 3 4 4 4 5 5 5 4 4 5 5 5 5 6 6 7 7 7 8 9 10 10 10 11 11
8 7 7 6 5 5 4 3 3 3 2 2 2 1 1 1 1 2 2 3 2 2 2 2 4 5 5 5 5 4 4 4 5 5 4 4 3 3 4 3 2 1 1 1 2 2 1 1 1 1 0 1 1 2 2 2 2 2 2 2 3 3 4 4 4 5 5 5 5 5 5 5 6 6 7 7 8 9 9 10 10 10 10 10 11
9 8 7 6 5 4 4 3 3 2 1 3 2 1 1 1 1 1 1 3 3 3 3 3 4 4 4 4 3 3 3 4 5 4 4 3 3 3 4 4 3 2 1 0 0 0 0 0 1 0 1 1 1 2 2 2 3 3 3 3 3 3 4 4 4 5 5 5 5 5 5 6 6 7 8 8 9 9 10 10 10 10 10 10 10
9 8 7 6 5 4 4 3 2 1 1 2 3 2 1 1 2 1 1 3 3 4 4 4 3 2 2 2 2 2 2 3 4 4 3 3 3 3 3 3 3 2 1 0 1 1 1 2 1 1 1 1 1 2 2 3 4 4 4 4 4 5 5 5 5 6 6 6 6 7 7 7 7 8 8 9 9 9 9 10 9 9 9 9 9
9 8 7 6 5 4 4 3 2 0 1 2 3 4 3 3 3 0 2 4 4 3 3 2 1 0 0 1 1 1 1 2 3 4 3 3 3 3 3 3 2 2 2 1 0 1 2 3 2 2 3 3 2 2 3 3 4 4 4 5 5 5 6 6 6 7 7 7 7 7 7 7 7 8 8 9 9 10 9 9 9 8 8 8 8
9 8 7 6 5 5 5 4 2 1 2 2 3 4 3 3 3 1 2 4 4 1 1 2 2 2 1 1 1 1 1 1 2 2 2 2 2 2 3 3 2 2 2 1 0 1 2 3 3 2 3 3 3 3 3 3 4 4 4 5 5 5 5 6 6 7 7 7 7 7 7 7 8 8 8 8 9 10 9 9 9 8 8 8 8
8 8 7 6 5 5 5 5 4 2 2 3 4 4 3 2 2 1 2 4 3 1 1 1 2 3 3 3 2 2 1 1 1 1 0 1 2 1 2 2 2 2 1 1 0 1 1 2 3 2 3 3 3 4 4 4 4 5 5 4 4 5 5 6 6 6 7 7 7 6 6 7 8 8 8 8 8 8 9 9 8 9 8 8 8
9 8 7 6 5 5 5 5 4 3 2 3 5 5 4 2 1 1 3 4 3 2 2 2 2 3 4 5 4 3 2 2 2 1 1 1 1 1 1 2 1 1 0 0 0 1 1 2 3 3 3 4 3 4 4 4 4 5 5 4 4 5 5 5 5 6 6 6 7 6 6 7 7 7 7 7 8 8 8 8 8 8 8 7 7
10 9 8 7 6 5 5 4 3 3 3 3 4 5 4 3 2 3 4 4 3 3 3 4 3 4 5 5 4 3 2 2 2 2 1 2 1 1 1 1 1 0 1 1 1 1 2 2 3 3 3 4 4 4 5 5 5 5 5 5 5 5 5 5 5 5 6 6 6 7 6 6 6 6 7 7 7 8 8 7 7 7 7 7 7
11 10 9 8 7 6 5 4 3 3 3 4 4 5 5 4 3 4 4 4 3 4 4 4 4 4 5 4 5 4 3 2 2 2 1 2 2 2 2 1 1 0 0 1 1 2 2 2 3 3 3 4 5 5 6 6 6 6 6 6 5 5 5 5 5 6 6 7 7 7 6 6 6 7 7 7 7 7 6 6 6 6 6 7 8
11 10 9 9 8 7 6 5 5 4 4 4 5 5 5 5 4 4 4 4 4 4 4 4 5 4 4 4 5 4 4 3 2 2 1 1 2 1 1 1 1 1 1 1 1 1 2 2 3 3 3 4 4 5 5 5 6 6 6 6 6 5 5 5 5 5 6 7 7 6 6 6 7 7 7 6 6 6 6 6 6 6 6 7 7
12 11 10 9 7 7 7 6 6 5 4 5 5 5 5 5 5 4 4 4 5 5 5 6 5 4 3 3 3 4 4 4 3 3 2 2 1 1 1 1 1 0 0 0 0 1 1 2 2 2 2 3 4 4 5 5 6 6 6 6 6 6 6 6 6 6 6 7 7 6 6 6 6 6 6 6 6 6 6 6 6 6 7 7 7
13 12 11 9 8 7 7 8 7 6 5 5 5 5 5 4 5 5 4 5 6 6 6 6 4 3 2 2 3 3 3 3 3 4 3 2 2 2 2 2 1 1 1 1 1 1 2 1 2 2 2 3 4 4 5 5 6 6 6 6 6 6 7 7 7 7 7 7 7 6 6 6 5 5 5 6 6 6 6 7 7 7 7 7 8
14 13 11 10 9 7 7 8 8 7 7 5 5 5 5 4 5 5 4 4 6 7 6 5 4 4 3 3 3 3 3 5 3 3 3 3 3 3 3 3 3 2 1 1 1 1 2 1 1 2 2 3 4 4 4 5 6 5 6 6 6 7 7 7 7 7 7 6 6 5 5 5 5 5 5 6 6 7 7 7 7 7 7 7 8
15 13 12 11 9 8 8 8 9 9 8 6 5 5 5 5 5 5 5 5 5 6 6 5 5 6 5 4 3 2 4 6 5 4 4 4 4 4 4 4 4 3 2 2 2 2 2 1 0 1 2 3 4 4 4 5 6 5 5 5 6 6 6 6 6 6 6 6 6 5 5 5 5 5 5 6 7 7 7 7 7 7 7 7 8
16 14 13 12 11 9 9 9 9 9 9 7 6 5 5 6 6 5 5 5 6 6 6 6 6 6 6 6 5 4 5 6 7 7 6 5 5 5 5 5 5 4 3 2 2 2 2 2 2 1 1 2 3 4 3 4 5 5 4 4 5 5 5 5 6 6 6 5 5 5 5 5 5 5 6 7 7 7 7 7 7 7 7 7 7
17 15 14 14 12 10 9 9 10 10 9 8 7 6 6 6 6 6 6 6 6 6 7 7 7 6 6 6 6 6 6 7 8 7 6 6 6 5 5 6 5 5 4 3 3 3 3 3 2 2 2 2 3 3 3 2 3 3 3 3 4 4 4 5 5 5 5 5 5 5 5 5 6 6 7 8 8 7 7 7 7 7 7 7 7
18 17 16 15 14 12 10 10 9 10 10 9 8 8 7 7 7 6 6 6 7 7 8 8 8 8 7 6 7 7 8 8 7 6 6 7 7 6 7 7 7 6 4 3 3 3 4 4 4 4 4 3 3 3 2 1 2 2 3 3 3 3 3 4 4 4 4 4 5 5 5 6 6 7 8 8 8 7 7 7 7 7 7 7 7
19 18 17 16 15 14 12 11 10 9 9 9 9 9 9 8 7 7 6 6 7 7 8 9 9 10 9 9 8 8 8 8 7 7 7 8 9 9 8 8 8 7 5 4 5 5 5 6 6 6 5 5 5 4 2 2 2 2 3 3 2 3 3 3 4 4 4 4 5 5 6 6 7 8 9 9 8 8 7 7 7 7 7 7 7
19 19 18 17 16 15 14 12 11 11 10 9 10 9 9 9 8 8 8 7 7 8 8 8 9 10 10 10 10 9 9 9 8 8 9 9 10 11 9 9 9 9 7 6 8 8 8 8 7 7 7 7 7 7 5 4 3 3 3 3 3 4 4 4 5 5 5 5 5 6 6 7 8 9 9 9 9 9 8 8 8 8 8 8 8
21 20 19 18 18 17 15 14 13 12 11 10 10 10 10 10 10 10 9 9 8 8 8 8 8 9 9 10 9 10 10 10 9 10 11 10 11 12 11 10 10 10 8 8 9 9 8 8 7 7 8 8 9 9 8 7 6 5 5 5 5 5 5 5 5 6 6 7 7 7 8 8 9 10 10 10 10 10 9 9 9 9 9 9 9
23 22 20 19 18 17 16 16 15 13 12 11 10 11 11 11 11 10 10 10 9 9 9 8 8 8 9 10 10 9 10 9 9 10 11 12 13 13 12 11 11 11 9 8 9 8 7 6 7 7 7 8 9 9 9 9 8 8 8 8 8 7 7 6 6 6 7 8 8 9 9 10 10 11 11 11 11 11 11 11 11 11 11 11 11
23 22 20 18 18 17 17 16 16 14 13 12 12 12 12 12 12 11 11 11 10 10 10 9 9 9 9 10 10 10 10 10 10 10 10 11 12 13 13 13 12 12 11 9 9 8 6 5 5 6 7 7 7 8 9 9 10 9 9 10 9 9 8 8 7 7 8 8 9 9 10 11 12 12 13 13 13 13 13 13 13 13 13 13 13
23 21 19 18 18 17 17 17 17 16 15 14 14 13 13 13 13 12 12 11 11 11 10 10 9 9 9 9 10 10 10 10 10 10 10 10 11 12 13 14 14 13 14 13 12 10 8 6 5 5 5 5 5 6 7 8 9 10 10 11 10 9 10 10 10 10 10 10 10 11 11 12 13 13 14 15 15 16 15 15 15 15 16 16 16
23 21 20 19 18 18 17 17 17 17 16 16 15 15 14 14 14 13 13 12 12 12 11 11 10 9 9 9 10 10 10 10 10 10 10 10 11 11 12 13 14 15 16 17 17 14 12 9 6 4 4 4 5 6 7 8 8 9 11 12 12 12 12 12 13 13 13 13 13 14 14 14 14 15 15 16 17 18 18 18 18 18 18 18 18
23 22 21 20 19 19 18 18 18 18 17 17 16 16 15 15 15 15 14 13 13 13 13 12 11 11 11 11 10 10 10 10 10 10 10 11 11 11 11 12 13 15 17 20 20 19 15 11 8 6 7 9 10 11 11 11 10 11 12 13 14 14 14 14 15 16 16 16 17 17 17 17 17 17 17 18 18 19 20 20 20 20 20 20 20
24 23 22 21 20 20 19 19 19 19 18 18 18 17 17 17 17 16 15 15 14 14 14 13 13 12 12 12 11 11 11 11 11 11 11 11 11 11 12 12 13 15 17 20 22 20 16 13 13 14 14 15 15 15 14 13 13 14 15 16 16 16 16 17 17 18 19 19 19 19 20 20 20 20 20 20 20 21 21 22 22 22 22 22 22
25 24 23 22 22 21 21 20 20 20 20 19 19 19 19 19 18 18 17 16 16 16 15 14 14 13 13 13 13 12 11 11 12 12 11 11 11 11 12 13 13 14 15 18 22 22 19 18 19 19 18 17 17 16 16 15 15 16 17 18 19 19 19 20 21 21 21 21 21 22 22 22 23 23 23 23 23 22 23 23 24 24 24 24 24
26 25 24 24 23 22 21 21 21 21 21 21 20 20 20 20 20 19 18 18 18 17 16 16 15 15 15 14 14 13 13 13 13 13 13 13 13 13 13 13 14 15 15 18 23 25 23 21 21 20 20 19 18 17 17 17 16 17 18 19 20 21 22 23 24 23 24 24 24 24 25 25 25 25 25 25 25 25 25 25 25 26 26 26 26
26 26 25 24 24 23 23 22 21 22 22 23 22 22 22 22 21 21 20 19 19 18 18 18 17 17 16 16 15 14 14 15 15 15 15 15 15 15 15 15 15 16 16 18 22 26 27 24 22 21 20 21 20 18 18 19 19 19 20 21 21 22 24 25 25 25 26 26 26 27 27 28 28 28 28 28 28 28 27 27 27 27 27 27 27
25 25 25 25 25 24 24 23 22 22 23 23 24 23 23 23 22 22 22 21 20 20 19 19 18 18 17 17 16 15 15 16 16 16 16 16 17 17 17 17 17 17 18 19 22 26 29 28 25 23 22 22 22 20 20 21 21 22 22 23 23 24 25 25 26 26 26 26 27 28 29 30 30 31 31 31 31 31 30 30 29 29 28 28 29
25 25 25 26 26 26 25 25 23 22 22 23 24 25 25 24 24 24 23 22 21 20 20 19 18 18 18 18 17 16 17 17 17 17 17 17 18 18 18 19 19 20 20 21 23 26 29 29 28 26 25 25 25 23 23 23 23 24 25 25 26 27 27 27 28 28 27 26 27 27 28 29 31 32 33 34 34 34 33 33 32 31 30 30 30
26 26 26 26 27 27 27 27 25 24 23 23 24 25 26 25 25 25 24 23 22 21 20 19 19 19 19 19 18 17 18 18 18 18 18 18 18 19 19 19 20 20 21 22 23 25 28 30 29 27 26 27 27 26 26 26 27 27 27 28 28 29 29 29 30 30 28 27 27 27 27 27 28 29 31 33 35 36 36 35 34 34 33 33 32
26 26 26 27 28 28 28 28 27 26 25 24 24 25 26 26 26 26 26 25 23 22 21 20 20 20 20 19 19 19 19 19 19 19 19 19 19 19 19 20 20 21 21 23 24 25 28 30 31 30 28 28 28 27 27 29 30 30 30 30 30 31 31 30 31 31 30 28 28 28 28 28 28 29 29 30 32 34 36 37 37 37 36 35 34
25 26 26 27 28 28 28 28 28 28 27 26 25 25 26 26 26 26 26 26 25 24 23 22 22 22 21 21 21 21 20 20 20 20 20 21 21 22 21 21 22 23 23 24 25 26 28 30 32 33 32 31 31 30 28 29 30 31 32 32 31 31 31 31 30 30 30 30 30 30 30 29 29 30 30 30 31 31 33 35 37 38 38 37 36
25 26 26 28 28 28 27 28 29 29 28 28 27 27 26 26 27 26 27 27 27 26 25 24 24 23 23 22 22 22 21 21 21 21 22 23 24 24 24 24 24 24 25 26 26 27 29 31 32 34 34 34 33 32 30 28 29 29 29 31 32 31 31 32 32 31 30 31 32 32 33 32 32 32 31 31 31 31 31 33 35 37 38 38 38
26 26 27 28 28 28 27 28 28 29 29 29 29 29 29 28 28 27 27 27 28 27 26 26 26 25 25 24 24 24 23 23 23 23 24 25 25 25 24 24 25 24 25 26 27 27 28 30 32 33 34 34 34 33 30 28 28 28 27 29 32 32 32 34 35 35 33 33 34 36 38 37 35 34 33 33 33 31 30 31 33 35 36 38 39
26 26 27 28 29 29 29 29 29 29 30 30 31 31 30 29 29 29 28 28 28 28 28 28 27 27 27 27 27 26 26 25 24 25 25 25 25 25 23 23 24 24 24 25 26 27 27 28 29 30 30 30 30 30 29 27 27 26 26 27 30 31 33 36 38 38 36 35 35 38 39 39 37 36 35 37 37 34 32 32 33 33 32 33 36
27 28 28 29 29 29 30 30 30 30 31 32 32 32 31 30 30 30 30 30 29 29 29 29 29 29 28 28 28 28 27 26 25 25 25 24 24 23 22 21 22 23 23 24 25 26 27 26 25 24 24 25 24 23 25 26 26 26 27 28 30 31 34 38 41 40 38 36 36 38 39 39 40 40 40 42 42 41 40 38 36 34 30 28 31
29 29 29 29 30 30 31 32 32 32 32 32 32 32 31 31 30 30 31 31 30 30 30 30 30 30 29 29 29 28 28 27 26 25 24 24 23 22 21 21 21 21 22 23 24 25 26 26 23 19 19 21 21 19 21 25 27 29 29 28 29 32 34 39 42 42 40 39 41 43 42 41 43 45 44 45 46 46 45 43 41 38 32 28 31
31 31 31 30 31 31 32 33 33 33 33 33 32 32 31 31 30 30 31 31 31 31 31 31 31 30 30 30 29 29 28 27 26 25 25 24 22 22 21 21 21 20 20 21 23 24 25 27 26 22 21 23 24 21 22 25 28 30 29 27 27 30 35 38 39 41 41 40 43 46 46 45 47 49 48 47 47 46 45 43 43 43 37 32 33
32 32 31 31 32 32 33 34 34 35 34 34 33 32 32 32 31 30 31 31 31 32 31 31 31 31 31 30 30 29 28 27 25 25 25 24 23 22 21 20 21 21 20 20 21 22 23 25 28 28 27 27 28 28 26 28 29 29 30 30 28 29 33 36 38 41 41 41 44 48 49 49 48 50 52 52 51 52 50 46 44 44 42 36 31
33 33 32 31 32 32 33 34 35 35 35 34 34 33 33 32 31 31 31 31 32 32 32 32 32 31 31 30 30 29 28 27 26 24 24 23 22 21 21 21 21 21 21 21 21 21 22 24 27 29 28 27 30 31 29 28 28 28 29 31 31 32 35 38 42 44 44 42 43 45 48 49 48 51 55 55 54 56 54 49 45 45 44 40 32
33 32 32 32 32 32 32 33 34 35 36 35 34 34 33 33 32 31 31 31 32 32 32 32 32 31 30 30 29 29 28 27 26 24 23 22 21 20 20 20 21 21 22 22 21 20 21 23 26 28 28 28 29 30 29 26 26 26 27 29 33 36 39 42 44 46 46 44 43 44 48 52 52 53 55 54 52 54 54 50 48 47 46 42 36
34 33 33 32 32 32 31 32 33 35 36 35 35 34 33 32 32 31 31 32 32 32 32 31 31 30 30 29 29 28 27 27 26 23 21 20 20 20 20 20 20 22 22 23 22 22 22 23 25 27 29 29 29 29 28 26 26 27 28 30 33 36 40 44 46 48 48 46 46 46 48 50 49 49 54 54 49 49 53 52 49 48 46 42 39
35 34 33 33 33 32 31 32 33 34 35 35 34 34 33 32 32 32 32 31 31 32 32 31 30 30 29 28 28 28 27 27 25 22 19 18 19 19 19 20 21 23 23 22 23 23 23 24 26 27 29 29 29 29 29 27 27 28 30 32 31 31 36 43 47 50 50 47 44 41 39 43 45 44 47 49 46 46 51 51 46 46 47 43 39
34 34 33 32 33 32 32 32 32 33 33 33 33 33 32 31 31 31 31 31 31 32 31 30 30 29 28 28 27 27 27 26 24 20 17 17 18 18 19 19 22 24 24 22 22 23 24 26 27 28 28 29 28 28 27 26 26 27 28 30 30 30 34 40 43 46 48 46 43 38 35 38 41 38 39 44 46 47 49 48 45 45 47 44 40
32 32 32 32 32 31 30 30 31 31 31 32 32 31 31 30 30 30 29 30 31 31 31 30 29 28 27 27 26 26 26 24 22 18 16 17 18 18 18 20 24 26 24 21 22 23 25 26 27 27 28 28 27 27 27 27 27 27 29 31 32 31 32 34 35 37 40 43 43 39 35 35 36 37 39 41 46 48 46 45 47 47 46 44 40
Wind_Direction
144 142 139 137 136 132 128 126 130 122 113 95 13 20 15 28 38 30 20 33 52 63 69 78 85 83 85 85 83 75 68 66 63 64 64 64 76 89 90 94 103 95 79 66 62 68 61 54 63 55 42 41 44 49 52 52 52 52 48 45 40 31 20 9 8 10 4 2 2 353 347 349 350 352 354 352 348 352 354 353 354 354 355 357 357
151 151 149 145 141 135 134 137 140 136 138 198 312 339 349 15 13 4 347 344 27 62 75 80 94 94 90 86 81 72 62 57 55 56 55 53 61 74 81 82 94 92 91 84 59 61 70 61 67 59 38 37 43 36 34 34 33 33 27 23 18 12 356 348 350 353 350 344 343 339 339 342 342 343 344 344 343 346 351 351 350 349 349 350 350
158 158 156 153 147 140 138 138 147 159 166 204 261 301 331 6 351 329 303 279 43 96 113 101 108 104 96 84 76 70 57 47 45 49 53 51 52 61 66 66 85 87 91 97 85 82 87 68 71 69 28 24 44 36 28 28 25 23 17 10 5 2 351 342 341 343 342 337 336 338 340 339 339 342 345 346 346 345 348 346 343 344 344 344 344
164 164 162 159 157 152 147 144 153 161 170 208 239 290 326 354 323 283 252 216 174 135 140 121 108 106 97 86 77 66 49 38 32 39 52 55 53 60 63 61 80 100 84 87 93 92 83 84 79 75 36 22 43 38 30 21 15 17 14 12 2 357 357 354 351 347 343 343 344 347 347 345 345 349 347 344 343 340 339 338 338 340 338 338 339
170 170 167 166 169 166 162 162 167 165 196 242 255 306 339 343 289 270 231 205 184 147 139 122 107 104 96 86 78 63 44 29 21 25 45 57 58 66 73 74 70 65 58 80 94 83 70 87 87 80 10 354 13 6 15 360 346 351 352 355 350 342 344 350 354 352 347 347 350 350 349 349 348 344 339 337 336 333 334 334 335 335 334 336 337
177 177 175 177 177 173 167 173 186 185 227 282 304 342 12 342 325 318 238 198 172 138 130 117 104 98 85 78 71 56 37 23 14 13 33 57 70 79 84 88 90 73 47 40 89 77 59 345 96 142 266 321 344 329 336 318 309 317 317 315 321 322 319 322 330 335 336 337 339 342 340 339 339 334 331 331 329 328 329 330 331 331 333 336 338
183 184 184 186 185 179 172 179 193 189 259 301 313 323 331 329 339 346 212 194 169 146 133 116 100 83 65 62 51 42 30 18 10 4 20 54 80 95 88 88 102 108 111 143 284 278 262 266 267 262 285 315 319 308 308 292 294 304 307 307 311 309 310 316 319 319 324 329 329 330 329 328 330 328 328 329 326 327 329 329 331 332 335 340 344
188 190 190 192 193 189 188 195 200 198 275 299 310 316 331 333 329 355 170 183 179 160 140 135 144 228 66 52 27 32 20 5 7 5 12 54 87 104 96 87 91 109 123 119 271 276 270 264 269 278 288 297 296 288 284 282 287 298 300 296 297 297 301 308 312 315 319 322 320 321 323 323 327 327 327 327 324 328 334 334 335 337 340 343 345
195 196 195 197 198 195 196 202 211 224 263 290 294 301 327 327 309 270 156 174 187 181 149 166 191 228 244 314 322 339 349 339 357 4 13 66 101 109 91 89 75 80 105 117 160 294 288 273 277 284 284 288 292 296 297 295 291 290 290 287 287 289 292 294 299 304 307 309 311 314 318 320 325 327 325 323 323 329 334 336 338 340 341 343 345
197 200 200 199 198 198 200 204 210 221 258 291 297 307 321 304 288 253 186 183 189 198 192 181 202 234 262 290 294 306 301 287 327 344 32 71 111 117 79 84 79 72 93 112 61 335 312 300 307 304 295 288 287 297 305 307 301 294 293 294 292 290 290 290 293 298 300 301 305 309 313 317 321 320 319 321 325 329 331 335 339 340 343 346 349
199 201 202 202 201 202 208 213 218 225 251 289 300 304 303 291 296 265 229 209 208 230 255 262 265 266 278 284 277 274 272 283 294 258 165 99 107 111 82 81 85 66 32 357 342 330 317 316 322 317 304 294 286 287 292 297 298 297 297 297 295 289 291 297 299 301 302 300 303 307 310 313 315 314 316 322 327 328 329 333 337 341 346 351 356
203 205 204 206 206 206 216 227 234 241 252 271 284 289 296 304 298 266 247 236 239 256 270 275 275 286 294 276 253 243 262 286 268 232 156 125 117 105 105 93 84 29 329 310 296 303 318 323 324 318 307 301 304 305 303 302 299 297 297 299 299 294 292 294 295 299 301 300 303 307 309 311 313 315 319 323 324 325 327 332 338 343 349 356 1
203 207 208 210 212 214 221 232 243 249 258 262 267 280 287 286 282 272 256 252 263 273 273 271 268 286 299 267 238 238 264 292 264 231 192 145 134 115 101 93 100 89 28 344 306 294 311 331 335 324 310 308 315 314 312 312 309 305 303 304 304 302 300 293 291 297 302 302 303 308 312 312 312 314 318 320 321 324 329 336 340 344 351 359 4
202 206 209 212 215 221 226 233 243 247 258 268 274 281 281 277 282 291 274 259 267 278 279 274 266 277 288 261 245 255 273 287 275 252 240 191 161 147 120 111 124 110 70 31 338 302 303 324 334 327 316 317 316 311 309 307 304 305 304 303 303 305 309 305 302 304 306 305 306 313 320 315 312 313 319 322 323 329 335 339 342 345 353 360 2
204 207 210 213 215 224 229 232 241 246 255 268 280 288 290 289 291 298 292 271 264 271 278 273 267 274 274 252 263 281 289 292 271 250 253 243 217 209 184 162 159 142 80 34 280 277 286 307 325 329 322 320 316 309 309 306 303 305 304 302 304 310 316 318 319 321 319 316 316 322 324 318 314 316 321 326 328 333 337 339 341 345 353 357 356
210 211 213 216 219 225 230 232 236 242 248 260 276 287 287 287 289 293 295 276 260 266 279 273 253 245 256 286 323 324 326 327 278 249 252 255 246 250 245 236 238 252 282 296 270 263 258 281 311 321 326 323 320 317 319 320 314 309 304 299 303 309 314 317 319 323 324 322 323 323 320 316 315 319 323 327 328 330 333 335 337 342 348 350 349
216 217 218 220 222 225 230 233 235 237 241 251 268 281 278 272 279 288 295 283 262 262 278 277 239 224 243 301 346 9 14 5 333 259 253 264 265 272 284 263 243 248 282 289 276 253 229 250 313 325 342 337 335 338 341 340 332 320 306 295 297 304 308 310 312 319 322 322 325 322 319 319 320 321 323 323 324 325 326 328 331 335 339 340 341
221 223 225 224 223 225 228 232 236 237 238 245 256 272 274 269 275 284 291 287 271 261 272 281 256 242 251 275 303 324 338 354 355 315 293 290 281 284 300 283 247 251 281 284 272 247 223 226 271 330 352 347 344 349 353 352 346 335 320 304 302 306 309 311 313 321 325 324 325 322 322 324 320 318 318 319 320 319 321 322 323 326 328 330 333
223 226 229 227 224 224 226 230 236 238 238 241 247 262 268 267 273 280 283 282 275 264 267 280 272 260 262 275 284 288 307 331 337 325 318 322 315 302 302 296 276 277 288 290 275 242 216 203 202 237 327 345 349 351 350 350 348 347 340 329 324 320 319 319 319 323 326 325 323 321 321 320 314 312 313 315 315 315 315 314 315 316 317 321 325
225 227 231 229 224 222 225 227 234 238 239 240 240 248 257 263 272 276 280 282 277 266 262 268 272 271 271 278 286 286 294 313 323 316 304 310 321 325 322 314 308 302 301 306 291 248 226 218 231 258 285 324 344 353 347 331 334 344 350 346 339 332 324 319 317 318 320 319 316 313 312 308 304 305 305 306 307 307 308 306 306 306 308 313 317
227 227 230 232 226 220 221 225 233 236 237 238 236 239 247 257 268 275 279 281 278 270 264 265 266 268 273 278 287 291 291 301 316 317 302 303 314 325 328 324 323 317 300 298 292 264 255 256 260 267 273 287 309 338 349 323 304 316 335 344 340 329 319 311 308 307 307 306 304 301 299 297 296 296 297 298 298 298 299 298 298 299 302 306 309
230 227 228 232 229 221 219 223 229 233 235 234 232 234 242 251 262 268 271 272 275 274 268 265 263 263 270 279 285 290 292 296 308 316 314 313 313 315 317 317 317 313 297 284 283 278 273 272 272 273 272 276 284 294 304 302 290 290 301 316 320 314 307 302 300 298 297 294 291 289 288 288 289 290 291 292 291 290 288 288 290 291 294 297 300
231 230 227 229 230 225 221 221 225 230 231 231 230 231 237 245 253 259 262 264 267 271 270 267 266 266 271 278 282 284 283 284 291 297 301 305 308 310 312 305 301 303 300 287 283 282 280 278 277 275 273 273 275 278 277 274 272 276 282 286 294 300 296 293 291 290 289 288 287 284 283 284 286 287 287 287 286 284 282 281 282 283 285 288 291
230 229 226 225 227 226 224 223 225 228 230 231 229 230 234 239 245 252 258 262 262 266 269 269 270 270 272 275 277 277 276 276 281 287 288 287 293 304 309 303 300 303 301 289 286 289 288 287 285 278 275 273 272 273 273 270 263 261 264 266 274 281 281 281 280 278 277 277 278 278 279 280 282 283 283 284 283 282 281 279 279 279 279 281 284
227 227 226 225 226 227 227 228 228 230 232 233 230 230 233 237 242 249 256 261 262 263 264 264 265 265 266 267 269 273 278 279 279 281 283 282 285 296 303 302 301 302 300 293 292 297 300 298 291 282 275 272 271 270 269 269 264 259 259 261 263 265 265 267 269 272 271 270 270 271 274 276 278 280 281 281 281 280 280 280 279 279 278 280 281
228 229 228 227 228 228 230 233 232 233 234 235 234 231 233 237 242 247 252 257 259 259 259 259 259 259 259 261 264 269 274 276 277 276 277 279 281 289 297 300 300 301 304 304 304 308 317 312 295 289 285 279 276 274 271 268 265 260 260 262 260 256 258 261 263 268 271 272 273 272 273 275 276 278 280 280 279 278 279 279 279 279 279 279 279
232 232 232 231 231 230 230 233 234 233 234 236 238 235 235 237 241 246 249 252 256 258 259 258 258 258 257 258 260 262 265 268 271 270 269 272 275 281 289 294 296 298 302 307 311 316 323 323 316 314 310 300 292 287 281 276 272 267 265 269 271 265 262 264 266 268 270 272 275 277 278 278 278 279 279 279 279 278 277 276 277 277 277 278 278
235 234 235 233 233 231 231 232 233 235 236 237 239 239 239 239 241 245 249 251 255 258 259 258 258 258 257 259 259 261 262 262 265 268 268 269 272 277 282 285 289 292 297 303 310 317 323 325 328 332 330 328 325 319 308 300 294 283 275 277 282 279 273 270 270 271 271 272 274 276 279 280 281 281 280 279 278 277 276 274 273 273 273 273 273
236 235 235 235 235 233 232 232 232 234 237 239 239 240 242 242 242 244 248 252 255 256 257 257 257 257 257 259 262 264 265 264 266 269 270 271 273 276 280 282 283 286 290 296 304 313 318 322 326 322 320 320 318 315 311 309 307 297 290 288 289 289 285 278 274 273 273 273 274 275 277 278 280 281 281 280 279 277 275 274 272 271 270 270 270
236 236 237 237 237 236 235 234 233 234 237 239 239 239 241 243 243 244 246 250 253 254 256 256 256 257 257 260 263 266 269 271 271 270 270 272 274 276 279 281 281 282 284 289 298 308 314 313 314 314 314 314 313 309 306 305 304 301 297 296 295 296 295 287 282 280 279 278 278 278 278 277 277 278 278 279 279 279 277 275 272 270 268 267 267
237 237 238 240 240 238 236 236 235 235 236 238 239 238 239 241 243 244 245 248 252 255 257 258 259 259 259 261 263 266 270 273 273 273 273 273 274 277 278 280 282 282 283 284 290 300 309 309 310 314 316 316 314 312 309 306 303 300 297 295 295 295 293 290 288 288 287 285 284 282 281 279 278 277 277 277 278 279 279 277 274 271 268 266 265
238 239 239 240 240 239 237 236 236 235 236 237 238 238 239 241 243 245 246 248 251 255 257 259 261 261 261 262 263 266 269 272 272 274 276 276 277 278 279 281 283 284 286 284 286 295 305 308 309 313 316 316 314 313 312 309 305 301 298 295 294 293 291 290 290 289 288 287 285 284 283 282 280 279 278 278 277 277 277 277 275 272 269 266 265
237 238 239 240 239 239 238 237 235 234 235 236 237 238 239 241 242 244 246 248 250 253 256 258 260 263 264 264 265 267 268 270 272 273 275 278 279 280 281 283 284 285 288 287 289 296 303 307 310 312 313 313 313 313 311 308 305 302 299 297 296 295 293 292 291 289 287 285 284 282 281 281 280 279 278 277 276 275 274 273 273 272 270 268 265
237 238 239 239 239 239 239 237 235 234 234 235 236 237 238 240 242 244 246 249 251 253 256 258 260 262 264 265 265 267 270 270 272 273 274 277 279 281 283 284 286 288 289 289 290 294 300 305 308 310 311 310 309 308 307 306 306 304 302 300 299 297 295 295 293 291 289 288 286 284 281 279 277 276 276 275 274 273 272 271 270 270 270 269 266
236 237 238 239 239 238 238 237 235 234 233 234 235 237 237 239 242 244 246 249 252 254 255 257 259 261 262 264 265 267 270 272 273 274 275 277 279 281 283 284 286 288 290 292 292 294 298 302 304 306 309 308 306 305 305 304 304 304 303 302 301 299 298 298 297 295 294 294 292 289 285 283 280 277 275 273 272 272 271 271 269 269 269 268 267
235 236 237 238 239 238 237 235 233 233 233 234 235 236 238 240 242 244 245 248 250 252 253 255 256 258 260 262 264 266 269 271 272 273 274 277 279 281 283 286 288 290 293 294 293 295 297 298 299 302 303 303 302 303 304 303 303 302 301 300 300 300 300 300 300 299 299 298 296 293 290 287 284 281 278 275 273 271 271 271 270 269 267 266 266
234 235 236 237 238 237 236 234 232 231 232 233 235 236 238 240 241 243 244 246 249 251 252 254 255 257 259 261 264 266 268 270 271 273 275 278 279 281 284 287 290 292 293 293 293 294 295 296 298 299 299 298 299 300 301 302 303 302 301 301 301 301 301 302 302 303 303 301 298 296 293 290 287 284 281 278 275 272 270 269 269 268 268 266 265
234 235 235 236 237 237 236 234 233 231 231 233 234 235 238 240 241 242 244 246 248 250 252 254 255 257 259 261 263 265 267 269 271 274 277 280 283 285 287 289 291 292 292 292 293 293 293 294 295 296 297 297 297 297 297 299 301 302 303 304 304 303 303 304 304 305 304 302 299 297 294 291 288 285 281 279 276 273 270 267 266 265 265 264 264
235 235 235 236 237 237 236 235 233 232 232 233 234 235 237 239 241 242 244 246 248 250 251 253 256 258 259 261 264 266 267 269 271 275 277 281 285 287 289 291 291 293 294 295 295 295 295 295 294 294 296 296 296 296 298 300 301 304 307 309 309 309 309 306 305 304 303 301 299 296 294 291 288 285 284 282 279 277 273 270 266 263 261 261 261
234 235 236 237 238 238 237 236 234 234 233 233 234 235 236 238 241 243 244 246 247 249 251 253 255 258 260 263 265 267 268 269 271 275 278 281 284 287 289 291 291 293 295 296 297 298 297 296 295 295 295 296 296 297 300 304 307 310 313 313 313 314 311 306 303 302 302 301 299 297 294 292 289 287 286 284 280 279 277 273 269 265 262 260 260
234 234 236 237 238 238 238 237 236 236 235 234 234 235 235 237 240 242 244 245 247 250 253 255 257 259 261 263 266 268 269 270 272 274 277 280 283 285 287 288 291 293 293 294 296 296 295 294 294 295 295 295 297 298 302 307 311 313 316 315 315 315 311 305 301 301 302 301 298 295 292 292 293 291 288 285 282 281 279 274 271 269 267 265 264
233 234 235 236 237 237 238 238 238 238 237 236 235 235 236 237 239 242 244 246 248 251 253 256 257 260 261 263 265 267 269 271 272 273 275 277 279 280 281 284 287 291 293 293 292 292 293 292 291 293 293 293 296 298 303 312 316 317 318 318 318 317 311 306 303 303 304 302 301 298 294 294 296 295 292 291 290 289 287 282 278 275 274 272 270
233 233 234 235 235 236 238 238 239 239 238 237 237 237 237 238 240 243 245 247 249 251 253 255 257 259 261 263 265 266 268 270 271 273 274 274 275 276 277 278 280 283 287 288 288 289 291 291 290 288 286 290 296 297 303 316 320 319 318 316 317 315 308 303 302 302 304 305 306 304 301 300 300 299 297 297 298 298 296 293 291 287 284 274 265
234 234 233 234 234 235 237 239 240 240 239 238 239 239 239 240 241 243 246 249 251 252 253 255 257 259 261 263 265 266 267 269 271 273 273 272 272 272 274 275 275 275 276 279 282 284 287 289 289 287 286 292 298 299 306 315 317 315 312 308 310 310 302 298 299 300 303 307 307 305 304 304 305 305 304 302 303 303 301 300 299 297 295 283 267
235 235 234 234 235 235 237 238 240 241 241 240 240 240 241 242 242 244 246 249 251 252 254 255 257 259 260 263 265 266 267 268 269 270 271 272 272 271 272 272 270 270 270 272 276 278 281 285 287 288 292 297 300 303 308 313 311 310 307 302 302 303 298 297 299 301 304 306 307 306 305 304 306 308 306 303 303 303 301 302 302 300 299 297 288
238 238 237 237 237 236 236 238 240 242 243 242 241 241 242 243 244 245 246 249 251 252 254 255 256 257 259 261 263 264 266 267 267 267 268 270 272 273 274 273 269 268 267 267 269 273 277 281 284 288 293 298 301 304 307 309 307 307 308 304 300 299 301 304 305 305 306 308 309 307 303 303 306 305 302 301 303 303 302 302 302 299 297 299 298
240 240 240 241 241 239 238 239 241 241 242 242 242 242 243 244 246 246 247 249 250 252 253 254 255 256 257 259 261 263 264 264 264 264 265 267 269 272 275 275 273 272 271 269 268 269 273 278 282 288 292 296 300 303 305 306 304 304 308 306 299 298 303 306 307 306 306 307 309 307 303 304 306 303 301 302 302 302 301 301 299 296 294 294 293
241 242 242 243 243 243 242 242 243 243 242 242 242 242 243 244 246 247 248 249 250 252 253 254 255 256 257 259 260 261 261 261 261 260 261 263 266 270 272 272 273 276 278 275 272 272 276 280 283 286 290 295 298 299 300 302 301 302 303 302 300 303 305 305 304 305 305 306 310 309 304 304 305 303 303 305 303 299 300 300 298 297 295 292 289
241 242 242 243 244 244 244 244 245 244 243 242 243 243 243 244 246 248 248 250 251 253 253 254 255 255 255 256 258 259 259 258 257 257 257 259 264 267 270 271 273 277 278 276 278 282 284 283 284 286 290 292 293 294 297 300 303 306 305 304 306 307 305 303 304 306 307 307 309 308 300 300 305 304 302 304 303 299 299 300 297 297 298 295 290
243 244 245 246 247 247 247 246 247 246 245 244 243 243 243 244 246 248 249 250 252 254 254 255 254 254 254 253 253 255 255 253 254 254 253 257 261 264 266 270 274 275 275 279 285 289 288 286 287 288 288 289 290 293 299 303 306 308 305 305 307 306 303 303 304 307 308 307 311 311 301 300 306 304 300 302 302 299 300 301 299 296 296 295 292
244 246 247 248 249 249 249 249 249 249 248 247 245 243 242 244 246 248 249 250 252 253 254 255 254 252 252 249 248 249 250 250 250 248 247 253 258 260 263 270 272 273 277 284 287 286 286 287 289 289 290 292 295 300 304 307 310 309 308 310 312 310 306 304 304 305 303 306 316 318 305 299 302 302 301 302 300 298 299 299 298 297 295 292 291